(112001) = 2002 GW137

Discovered at Palomar on 2002-04-12 by NEAT.

Orbit

Orbit type: Main Belt

Note: WebGL enabled browser required.

epoch2024-03-31.0
epoch JD2460400.5
perihelion date2021-02-06.96701
perihelion JD2459252.46701
argument of perihelion (°)245.11639
ascending node (°)104.45000
inclination (°)9.80227
eccentricity0.0645771
perihelion distance (AU)2.9340451
Tisserand w.r.t. Jupiter3.2
ΔV w.r.t. Earth (km/sec)11.0
semimajor axis (AU)3.1365975
mean anomaly (°)203.69015
mean daily motion (°/day)0.17742530
aphelion distance (AU)3.339
period (years)5.56
P-vector [x]0.97064080
P-vector [y]-0.10775042
P-vector [z]-0.21504951
Q-vector [x]0.17514760
Q-vector [y]0.92940088
Q-vector [z]0.32486508
absolute magnitude14.76
phase slope0.15
uncertainty0
referenceMPEC 2024-F62
observations used1053
oppositions20
arc length (days)9749
first opposition used1997
last opposition used2024
residual rms (arc-secs)0.70
perturbers coarse indicatorM-v
perturbers precise indicator003Ek
first observation date used1997-07-11.0
last observation date used2024-03-20.0
computer nameMPCLINUX
JD of orbit computation2456847.848440
perihelion JD uncertainty (days)2.7500E-04
argument of perihelion uncertainty (°)5.6121E-05
ascending node uncertainty (°)3.3543E-05
inclination uncertainty (°)5.5800E-06
eccentricity uncertainty 4.9254E-08
perihelion distance uncertainty (AU)1.5524E-07
Minimum Orbit Intersection Distances (in AU)
for orbit epoch: 2460400.5, reference: E2024-GH2
Mercury2.54018
Venus2.21101
Earth1.94299
Mars1.57033
Jupiter1.97263
Saturn5.84062
Uranus15.1376
Neptune26.8155

Observations

1046 total observations over interval: 1997 07 11.19758 – 2024 03 20.237361
These data are available for download (format description).

Date (UT) J2000 RA J2000 Dec Magn Location Ref
1997 07 11.19758 15 49 46.36 -13 00 23.3 20.7 V 691 – Steward Observatory, Kitt Peak-Spacewatch MPS 57546
1997 07 11.22828 15 49 45.99 -13 00 30.6 20.3 V 691 – Steward Observatory, Kitt Peak-Spacewatch MPS 57546
1997 07 11.25181 15 49 45.64 -13 00 34.9 21.1 V 691 – Steward Observatory, Kitt Peak-Spacewatch MPS 57546
2001 01 04.38022 09 48 21.69 +19 39 27.3 19.4   704 – Lincoln Laboratory ETS, New Mexico MPS 57546
2001 01 04.39539 09 48 21.42 +19 39 31.2 19.8   704 – Lincoln Laboratory ETS, New Mexico MPS 57546
2001 01 04.41053 09 48 20.99 +19 39 36.4 19.5   704 – Lincoln Laboratory ETS, New Mexico MPS 57546
2001 01 04.42568 09 48 20.70 +19 39 41.7 20.3   704 – Lincoln Laboratory ETS, New Mexico MPS 57546
2001 01 19.35183 09 40 41.70 +21 07 02.6 19.5   704 – Lincoln Laboratory ETS, New Mexico MPS 57546
2001 01 19.36720 09 40 41.03 +21 07 08.2 19.3   704 – Lincoln Laboratory ETS, New Mexico MPS 57546
2001 01 19.38260 09 40 40.44 +21 07 12.0 19.6   704 – Lincoln Laboratory ETS, New Mexico MPS 57546
2001 01 19.39800 09 40 39.76 +21 07 19.2 19.8   704 – Lincoln Laboratory ETS, New Mexico MPS 57546
2001 02 03.31480 09 29 42.75 +22 39 21.1 18.5   704 – Lincoln Laboratory ETS, New Mexico MPS 57546
2001 02 03.32981 09 29 42.01 +22 39 24.9 19.1   704 – Lincoln Laboratory ETS, New Mexico MPS 57546
2001 02 03.35949 09 29 40.54 +22 39 35.2 19.1   704 – Lincoln Laboratory ETS, New Mexico MPS 57546
2001 02 03.37434 09 29 39.73 +22 39 40.5 19.4   704 – Lincoln Laboratory ETS, New Mexico MPS 57546
2001 02 17.24029 09 18 36.69 +23 53 59.7 19.3   704 – Lincoln Laboratory ETS, New Mexico MPS 57546
2001 02 17.25426 09 18 36.09 +23 54 03.8 19.5   704 – Lincoln Laboratory ETS, New Mexico MPS 57546
2001 02 17.26815 09 18 35.31 +23 54 07.2 20.0   704 – Lincoln Laboratory ETS, New Mexico MPS 57546
2001 02 17.28200 09 18 34.71 +23 54 11.7 19.6   704 – Lincoln Laboratory ETS, New Mexico MPS 57546
2001 02 17.29592 09 18 34.05 +23 54 15.5 19.9   704 – Lincoln Laboratory ETS, New Mexico MPS 57546
2002 04 12.33339 13 54 16.60 +03 01 09.3 19.6   644 – Palomar Mountain/NEAT MPS 57546
2002 04 12.35896 13 54 15.42 +03 01 15.9 19.4   644 – Palomar Mountain/NEAT MPS 57546
2002 04 12.38407 13 54 14.30 +03 01 22.3 19.9   644 – Palomar Mountain/NEAT MPS 57546
2002 04 14.49247 13 52 41.34 +03 10 07.0 20.1   608 – Haleakala-AMOS MPS 57546
2002 04 14.50346 13 52 40.82 +03 10 09.6 20.9   608 – Haleakala-AMOS MPS 57546
2002 04 14.51414 13 52 40.33 +03 10 12.9 20.7   608 – Haleakala-AMOS MPS 57546
2002 04 15.34421 13 52 03.71 +03 13 32.8 19.2 R 699 – Lowell Observatory-LONEOS MPS 57546
2002 04 15.36389 13 52 02.85 +03 13 37.3   699 – Lowell Observatory-LONEOS MPS 57546
2002 04 15.38364 13 52 01.87 +03 13 41.9   699 – Lowell Observatory-LONEOS MPS 57546
2002 04 15.40325 13 52 01.02 +03 13 46.3   699 – Lowell Observatory-LONEOS MPS 57546
2002 04 16.27304 13 51 22.47 +03 17 11.0 19.6   704 – Lincoln Laboratory ETS, New Mexico MPS 57546
2002 04 16.28708 13 51 21.86 +03 17 15.1 19.5   704 – Lincoln Laboratory ETS, New Mexico MPS 57546
2002 04 16.30089 13 51 21.21 +03 17 17.3 19.8   704 – Lincoln Laboratory ETS, New Mexico MPS 57546
2002 04 16.31460 13 51 20.64 +03 17 20.5 19.8   704 – Lincoln Laboratory ETS, New Mexico MPS 57546
2002 05 06.27695 13 37 03.94 +04 10 52.7 19.7   644 – Palomar Mountain/NEAT MPS 57546
2002 05 06.29798 13 37 03.10 +04 10 54.3 20.0   644 – Palomar Mountain/NEAT MPS 57546
2002 05 06.32261 13 37 02.11 +04 10 56.0 19.8   644 – Palomar Mountain/NEAT MPS 57546
2002 05 12.24144 13 33 25.98 +04 16 02.5 20.2   644 – Palomar Mountain/NEAT MPS 57546
2002 05 12.26220 13 33 25.25 +04 16 03.1 20.0   644 – Palomar Mountain/NEAT MPS 57546
2002 05 12.28311 13 33 24.51 +04 16 04.0 20.6   644 – Palomar Mountain/NEAT MPS 57546
2004 09 08.28656 01 22 26.29 -06 32 05.9 18.7   704 – Lincoln Laboratory ETS, New Mexico MPS 118385
2004 09 08.29776 01 22 25.96 -06 32 10.0 19.1   704 – Lincoln Laboratory ETS, New Mexico MPS 118385
2004 09 08.30905 01 22 25.68 -06 32 13.9 19.1   704 – Lincoln Laboratory ETS, New Mexico MPS 118385
2004 09 08.32036 01 22 25.41 -06 32 18.4 19.4   704 – Lincoln Laboratory ETS, New Mexico MPS 118385
2004 09 08.33209 01 22 25.07 -06 32 22.4 19.2   704 – Lincoln Laboratory ETS, New Mexico MPS 118385
2004 09 14.33926 01 19 38.75 -07 08 27.6 18.5 R 699 – Lowell Observatory-LONEOS MPS 120456
2004 09 14.35549 01 19 38.28 -07 08 33.3   699 – Lowell Observatory-LONEOS MPS 120456
2004 09 14.37172 01 19 37.75 -07 08 39.6   699 – Lowell Observatory-LONEOS MPS 120456
2004 09 14.38798 01 19 37.19 -07 08 45.3   699 – Lowell Observatory-LONEOS MPS 120456
2004 09 21.30153 01 15 38.22 -07 50 13.9 18.7   704 – Lincoln Laboratory ETS, New Mexico MPS 118385
2004 09 21.31427 01 15 37.73 -07 50 18.4 19.0   704 – Lincoln Laboratory ETS, New Mexico MPS 118385
2004 09 21.32710 01 15 37.21 -07 50 23.4 19.2   704 – Lincoln Laboratory ETS, New Mexico MPS 118385
2004 09 21.33881 01 15 36.75 -07 50 26.8 18.3 R 699 – Lowell Observatory-LONEOS MPS 120456
2004 09 21.33999 01 15 36.71 -07 50 27.5 19.2   704 – Lincoln Laboratory ETS, New Mexico MPS 118385
2004 09 21.35503 01 15 36.22 -07 50 33.1   699 – Lowell Observatory-LONEOS MPS 120456
2004 09 21.37123 01 15 35.54 -07 50 38.5   699 – Lowell Observatory-LONEOS MPS 120456
2004 09 21.38745 01 15 34.85 -07 50 44.6   699 – Lowell Observatory-LONEOS MPS 120456
2004 10 04.44841 01 06 27.58 -09 01 30.9 18.3   644 – Palomar Mountain/NEAT MPS 117594
2004 10 04.45888 01 06 27.12 -09 01 33.8 18.3   644 – Palomar Mountain/NEAT MPS 117594
2004 10 04.46987 01 06 26.60 -09 01 37.0 18.5   644 – Palomar Mountain/NEAT MPS 117594
2004 10 06.26309 01 05 06.22 -09 09 59.0 18.8   704 – Lincoln Laboratory ETS, New Mexico MPS 116598
2004 10 06.27452 01 05 05.74 -09 10 01.0 18.7   704 – Lincoln Laboratory ETS, New Mexico MPS 116598
2004 10 06.28587 01 05 05.19 -09 10 03.7 19.0   704 – Lincoln Laboratory ETS, New Mexico MPS 116598
2004 10 06.29727 01 05 04.62 -09 10 06.8 19.1   704 – Lincoln Laboratory ETS, New Mexico MPS 116598
2004 10 06.30865 01 05 04.11 -09 10 10.0 18.9   704 – Lincoln Laboratory ETS, New Mexico MPS 116598
2004 10 13.24632 00 59 51.65 -09 38 06.4 18.2   704 – Lincoln Laboratory ETS, New Mexico MPS 116598
2004 10 13.27928 00 59 50.12 -09 38 13.0 18.6   704 – Lincoln Laboratory ETS, New Mexico MPS 116598
2004 10 13.29020 00 59 49.58 -09 38 16.1 18.7   704 – Lincoln Laboratory ETS, New Mexico MPS 116598
2004 10 14.29764 00 59 04.79 -09 41 40.9 18.3 R 699 – Lowell Observatory-LONEOS MPS 119270
2004 10 14.31799 00 59 03.87 -09 41 44.5   699 – Lowell Observatory-LONEOS MPS 119270
2004 10 14.33829 00 59 02.90 -09 41 48.2   699 – Lowell Observatory-LONEOS MPS 119270
2004 10 14.35861 00 59 02.00 -09 41 53.3   699 – Lowell Observatory-LONEOS MPS 119270
2004 10 20.18486 00 54 50.67 -09 58 00.1 18.5 R 703 – Catalina Sky Survey MPS 117594
2004 10 20.19832 00 54 50.11 -09 58 02.3 18.5 R 703 – Catalina Sky Survey MPS 117594
2004 10 20.21179 00 54 49.52 -09 58 03.9 18.9 R 703 – Catalina Sky Survey MPS 117594
2004 10 20.22531 00 54 48.91 -09 58 06.0 18.7 R 703 – Catalina Sky Survey MPS 117594
2005 12 05.47362 06 53 48.26 +20 14 37.6 19.8 V 691 – Steward Observatory, Kitt Peak-Spacewatch MPS 155095
2005 12 05.49098 06 53 47.56 +20 14 40.6 19.8 V 691 – Steward Observatory, Kitt Peak-Spacewatch MPS 155095
2005 12 05.50834 06 53 46.88 +20 14 44.0 19.7 V 691 – Steward Observatory, Kitt Peak-Spacewatch MPS 155095
2007 02 22.28635 11 43 51.42 +14 48 03.2 19.9 V 703 – Catalina Sky Survey MPS 201271
2007 02 22.29398 11 43 51.13 +14 48 05.9 19.3 V 703 – Catalina Sky Survey MPS 201271
2007 02 22.30160 11 43 50.80 +14 48 08.7 19.5 V 703 – Catalina Sky Survey MPS 201271
2007 02 22.30919 11 43 50.59 +14 48 12.0 19.6 V 703 – Catalina Sky Survey MPS 201271
2007 03 16.25935 11 28 26.00 +17 00 03.2 19.9 V 703 – Catalina Sky Survey MPS 204258
2007 03 16.26707 11 28 25.50 +17 00 05.9 20.0 V 703 – Catalina Sky Survey MPS 204258
2007 03 16.27476 11 28 25.14 +17 00 07.9 19.6 V 703 – Catalina Sky Survey MPS 204258
2007 03 16.28244 11 28 24.85 +17 00 10.5 19.5 V 703 – Catalina Sky Survey MPS 204258
2007 03 19.28136 11 26 13.49 +17 14 34.7 19.1 R 699 – Lowell Observatory-LONEOS MPS 205387
